Location: Newark
(35.6799°N, 139.7636°E)
Time: 20:42:23
(UTC+00:00)

Vanguard 1 Rocket - Pass Details

Date: 17 December 2019
Orbit: 651 x 4226 km, 34.3° (Epoch: 28 January)

Event Time Altitude Azimuth Distance (km) Brightness Sun altitude
Rises 08:20:22 0° 226° (SW) 8,346 13.7 -10.2°
Reaches altitude 10° 08:26:17 10° 223° (SW) 7,413 13.1 -11.3°
Maximum altitude 08:51:07 57° 152° (SSE) 4,002 10.5 -16.1°
Enters shadow 09:03:55 22° 86° (E) 4,565 10.3 -18.6°
